Location: Bismarck
(46.7731°N, 100.8200°W)
Time: 21:55:29
(UTC-06:00)

ISS - All Passes

Search period start: 06 February 2016 00:00
Search period end: 16 February 2016 00:00
Orbit: 399 x 408 km, 51.6° (Epoch: 06 February)

Date Brightness Start Highest point End Pass type
(mag) Time Alt. Az. Time Alt. Az. Time Alt. Az.
06 Feb - 01:13:52 10° W 01:15:50 15° SW 01:17:48 10° S night (unlit)
06 Feb - 17:54:11 10° SSW 17:57:09 33° SE 18:00:07 10° ENE daylight
06 Feb - 19:30:20 10° W 19:33:31 52° NNW 19:36:43 10° ENE visible
06 Feb - 21:07:24 10° WNW 21:10:23 33° N 21:13:23 10° ENE visible
06 Feb - 22:43:59 10° WNW 22:47:13 62° NNE 22:50:27 10° ESE night (unlit)
07 Feb - 00:20:44 10° W 00:23:30 26° SW 00:26:14 10° SSE night (unlit)
07 Feb - 17:02:19 10° S 17:04:45 20° SE 17:07:13 10° E daylight
07 Feb - 18:37:40 10° WSW 18:40:55 76° NNW 18:44:10 10° ENE visible
07 Feb - 20:14:40 10° WNW 20:17:41 33° N 20:20:41 10° ENE visible
07 Feb - 21:51:26 10° WNW 21:54:35 45° NNE 21:57:44 10° E night (unlit)
07 Feb - 23:27:56 10° WNW 23:31:03 43° SW 23:34:10 10° SE night (unlit)
08 Feb - 16:11:16 10° SSE 16:12:25 11° SE 16:13:33 10° ESE daylight
08 Feb - 17:45:07 10° SW 17:48:21 68° SSE 17:51:35 10° ENE daylight
08 Feb - 19:21:54 10° W 19:24:58 38° N 19:28:03 10° ENE visible
08 Feb - 20:58:50 10° WNW 21:01:53 37° N 21:04:57 10° E visible
08 Feb - 22:35:18 10° WNW 22:38:32 75° SSW 22:41:47 10° SE night (unlit)
09 Feb - 00:13:00 10° WSW 00:14:30 13° SW 00:16:00 10° SSW night (unlit)
09 Feb - 16:52:45 10° SW 16:55:49 40° SE 16:58:54 10° ENE daylight
09 Feb - 18:29:06 10° W 18:32:15 47° NNW 18:35:26 10° ENE visible
09 Feb - 20:06:09 10° WNW 20:09:09 33° N 20:12:09 10° ENE visible
09 Feb - 21:42:41 10° WNW 21:45:56 71° NNE 21:49:10 10° ESE visible
09 Feb - 23:19:34 10° W 23:22:08 22° SW 23:24:41 10° S night (unlit)
10 Feb - 16:00:42 10° SSW 16:03:21 23° SE 16:06:01 10° E daylight
10 Feb - 17:36:21 10° WSW 17:39:35 67° NNW 17:42:49 10° ENE daylight
10 Feb - 19:13:23 10° WNW 19:16:23 33° N 19:19:23 10° ENE visible
10 Feb - 20:50:05 10° WNW 20:53:16 49° NNE 20:56:26 10° E visible
10 Feb - 22:26:39 10° WNW 22:29:40 37° SW 22:32:41 10° SSE night (unlit)
11 Feb - 15:09:13 10° SSE 15:10:56 14° SE 15:12:41 10° ESE daylight
11 Feb - 16:43:41 10° WSW 16:46:56 80° SSE 16:50:12 10° ENE daylight
11 Feb - 18:20:34 10° WNW 18:23:36 36° N 18:26:40 10° ENE daylight
11 Feb - 19:57:26 10° WNW 20:00:32 39° NNE 20:03:36 10° E visible
11 Feb - 21:33:54 10° WNW 21:37:07 63° SSW 21:40:19 10° SE visible
11 Feb - 23:12:20 10° WSW 23:13:00 10° SW 23:13:40 10° SW night (unlit)
12 Feb - 15:51:12 10° SW 15:54:20 47° SSE 15:57:29 10° ENE daylight
12 Feb - 17:27:42 10° W 17:30:50 43° NNW 17:33:58 10° ENE daylight
12 Feb - 19:04:43 10° WNW 19:07:44 34° N 19:10:45 10° ENE visible
12 Feb - 20:41:14 10° WNW 20:44:29 80° NNE 20:47:43 10° ESE visible
12 Feb - 22:18:16 10° W 22:20:36 18° SW 22:22:56 10° S night (unlit)
13 Feb - 14:58:58 10° SSW 15:01:48 27° SE 15:04:37 10° E daylight
13 Feb - 16:34:51 10° WSW 16:38:05 59° NNW 16:41:19 10° ENE daylight
13 Feb - 18:11:55 10° WNW 18:14:54 33° N 18:17:54 10° ENE daylight
13 Feb - 19:48:33 10° WNW 19:51:46 54° NNE 19:54:57 10° E visible
13 Feb - 21:25:11 10° WNW 21:28:06 31° SW 21:31:01 10° SSE visible
14 Feb - 14:07:10 10° S 14:09:18 16° SE 14:11:25 10° E daylight
14 Feb - 15:42:06 10° WSW 15:45:22 89° NNW 15:48:38 10° ENE daylight
14 Feb - 17:19:02 10° WNW 17:22:04 35° N 17:25:06 10° ENE daylight
14 Feb - 18:55:52 10° WNW 18:58:59 41° NNE 19:02:05 10° E visible
14 Feb - 20:32:20 10° WNW 20:35:31 54° SSW 20:38:41 10° SE visible
15 Feb - 14:49:29 10° SW 14:52:41 56° SSE 14:55:54 10° ENE daylight
15 Feb - 16:26:07 10° W 16:29:14 41° NNW 16:32:21 10° ENE daylight
15 Feb - 18:03:06 10° WNW 18:06:08 35° N 18:09:10 10° ENE daylight
15 Feb - 19:39:35 10° WNW 19:42:50 89° SW 19:46:05 10° ESE visible
15 Feb - 21:16:52 10° W 21:18:53 16° SW 21:20:55 10° S visible
